Torna al catalogo

COSMOS 2526

AttivoNavigazioneGEO
NORAD 43432·PAYLOAD·🇷🇺 Russia

Lanciato Apr 18, 2018 da Baikonur Cosmodrome

Loading…

TLE

AggiornatoSource: Space-Track

Epoca: Sep 14, 2026, 16:07 UTC

1 43432U 18037A   26257.67173478 -.00000352  00000-0  00000+0 0  9990
2 43432   0.0259 115.4742 0000550 120.2397 127.8309  1.00275211 30857

Traccia COSMOS 2526 in tempo reale con AllMySat

Download on the App Store